| time (UTC) | temp F | wind direction | speed MPH | gust MPH | rain 1hr in | rain 24hr in | rain mn in | humidity % | barometer mb |
| 20260505114014 | 62 | 194 | 0.0 | 4.0 | 0.00 | 0.06 | 0.01 | 81 | 1011.0 |
| 20260505113512 | 62 | 193 | 0.0 | 3.0 | 0.00 | 0.06 | 0.01 | 81 | 1011.1 |
| 20260505113011 | 61 | 193 | 0.0 | 2.0 | 0.00 | 0.06 | 0.01 | 81 | 1011.2 |
| 20260505112510 | 60 | 193 | 0.0 | 2.0 | 0.00 | 0.06 | 0.01 | 79 | 1011.4 |
| 20260505112010 | 60 | 193 | 0.0 | 2.0 | 0.00 | 0.06 | 0.01 | 82 | 1011.5 |
| 20260505111515 | 59 | 193 | 0.0 | 2.0 | 0.00 | 0.06 | 0.01 | 81 | 1011.6 |
| 20260505111008 | 60 | 193 | 0.0 | 2.0 | 0.00 | 0.06 | 0.01 | 81 | 1011.5 |
| 20260505110507 | 60 | 193 | 0.0 | 2.0 | 0.00 | 0.06 | 0.01 | 81 | 1011.7 |
| 20260505102004 | 60 | 193 | 0.0 | 2.0 | 0.00 | 0.06 | 0.01 | 82 | 1011.8 |
| 20260505101503 | 59 | 193 | 0.0 | 2.0 | 0.00 | 0.06 | 0.01 | 83 | 1011.8 |
| 20260505101003 | 59 | 193 | 0.0 | 2.0 | 0.00 | 0.06 | 0.01 | 83 | 1011.7 |
| 20260505100501 | 59 | 193 | 0.0 | 2.0 | 0.00 | 0.06 | 0.01 | 84 | 1011.8 |
| 20260505100110 | 59 | 193 | 0.0 | 2.0 | 0.00 | 0.06 | 0.01 | 84 | 1011.7 |
| 20260505095559 | 58 | 193 | 0.0 | 3.0 | 0.00 | 0.06 | 0.01 | 85 | 1011.8 |
| 20260505095059 | 58 | 193 | 0.0 | 3.0 | 0.00 | 0.06 | 0.01 | 85 | 1011.8 |
| 20260505094607 | 58 | 193 | 0.0 | 4.0 | 0.00 | 0.06 | 0.01 | 85 | 1011.7 |
| 20260505094056 | 58 | 193 | 0.0 | 2.0 | 0.00 | 0.06 | 0.01 | 86 | 1011.7 |
| 20260505093600 | 58 | 193 | 0.0 | 2.0 | 0.00 | 0.06 | 0.01 | 86 | 1011.7 |
| 20260505093056 | 57 | 193 | 0.0 | 2.0 | 0.00 | 0.06 | 0.01 | 86 | 1011.8 |
| 20260505092559 | 57 | 193 | 0.0 | 2.0 | 0.00 | 0.06 | 0.01 | 86 | 1011.8 |
| 20260505092053 | 57 | 284 | 0.0 | 0.0 | 0.00 | 0.06 | 0.01 | 87 | 1011.7 |
| 20260505091553 | 57 | 284 | 0.0 | 0.0 | 0.00 | 0.06 | 0.01 | 87 | 1011.7 |
| 20260505091051 | 57 | 284 | 0.0 | 0.0 | 0.00 | 0.06 | 0.01 | 88 | 1011.7 |
| 20260505090551 | 57 | 284 | 0.0 | 2.0 | 0.00 | 0.06 | 0.01 | 88 | 1011.8 |
| 20260505090105 | 57 | 284 | 0.0 | 2.0 | 0.00 | 0.06 | 0.01 | 89 | 1011.8 |
| 20260505085550 | 57 | 303 | 0.0 | 0.0 | 0.00 | 0.06 | 0.01 | 89 | 1011.7 |
| 20260505085053 | 57 | 303 | 0.0 | 0.0 | 0.00 | 0.06 | 0.01 | 89 | 1011.6 |
| 20260505084549 | 56 | 303 | 0.0 | 0.0 | 0.00 | 0.06 | 0.01 | 90 | 1011.6 |
| 20260505084048 | 56 | 303 | 0.0 | 0.0 | 0.01 | 0.06 | 0.01 | 90 | 1011.8 |
| 20260505083548 | 56 | 306 | 0.0 | 0.0 | 0.01 | 0.06 | 0.01 | 90 | 1011.8 |
| 20260505083048 | 56 | 306 | 0.0 | 0.0 | 0.01 | 0.06 | 0.01 | 90 | 1011.8 |
| 20260505082548 | 56 | 307 | 0.0 | 0.0 | 0.01 | 0.06 | 0.01 | 90 | 1011.9 |
| 20260505082046 | 56 | 307 | 0.0 | 0.0 | 0.01 | 0.06 | 0.01 | 90 | 1012.0 |
| 20260505081549 | 56 | 307 | 0.0 | 0.0 | 0.01 | 0.06 | 0.01 | 90 | 1012.1 |
| 20260505081046 | 56 | 307 | 0.0 | 0.0 | 0.01 | 0.06 | 0.01 | 90 | 1012.2 |
| 20260505080544 | 56 | 307 | 0.0 | 0.0 | 0.01 | 0.06 | 0.01 | 91 | 1012.3 |
| 20260505080051 | 56 | 307 | 0.0 | 0.0 | 0.01 | 0.06 | 0.01 | 91 | 1012.3 |
| 20260505075541 | 56 | 307 | 0.0 | 0.0 | 0.01 | 0.06 | 0.01 | 91 | 1012.4 |
| 20260505075040 | 55 | 307 | 0.0 | 0.0 | 0.01 | 0.06 | 0.01 | 91 | 1012.4 |
| 20260505074540 | 55 | 307 | 0.0 | 0.0 | 0.01 | 0.06 | 0.01 | 91 | 1012.4 |
| 20260505074042 | 55 | 307 | 0.0 | 0.0 | 0.00 | 0.05 | 0.00 | 91 | 1012.5 |
| 20260505073541 | 55 | 307 | 0.0 | 0.0 | 0.00 | 0.05 | 0.00 | 91 | 1012.6 |
| 20260505073051 | 55 | 307 | 0.0 | 0.0 | 0.00 | 0.05 | 0.00 | 91 | 1012.6 |
| 20260505072540 | 55 | 307 | 0.0 | 0.0 | 0.00 | 0.05 | 0.00 | 92 | 1012.6 |
| 20260505072037 | 55 | 307 | 0.0 | 0.0 | 0.00 | 0.05 | 0.00 | 92 | 1012.6 |
| 20260505071537 | 55 | 307 | 0.0 | 0.0 | 0.00 | 0.05 | 0.00 | 92 | 1012.6 |
| 20260505071037 | 55 | 307 | 0.0 | 0.0 | 0.00 | 0.05 | 0.00 | 92 | 1012.6 |
| 20260505070537 | 54 | 307 | 0.0 | 0.0 | 0.00 | 0.05 | 0.00 | 92 | 1012.6 |
| 20260505070040 | 54 | 307 | 0.0 | 0.0 | 0.00 | 0.05 | 0.00 | 92 | 1012.7 |
| 20260505065535 | 54 | 307 | 0.0 | 0.0 | 0.00 | 0.05 | 0.00 | 92 | 1012.6 |
| 20260505065036 | 54 | 307 | 0.0 | 0.0 | 0.00 | 0.05 | 0.00 | 92 | 1012.6 |
| 20260505064535 | 54 | 307 | 0.0 | 0.0 | 0.00 | 0.05 | 0.00 | 92 | 1012.6 |
| 20260505064035 | 54 | 307 | 0.0 | 0.0 | 0.00 | 0.05 | 0.00 | 92 | 1012.8 |
| 20260505063535 | 54 | 307 | 0.0 | 0.0 | 0.00 | 0.05 | 0.00 | 92 | 1012.8 |
| 20260505063036 | 54 | 307 | 0.0 | 0.0 | 0.00 | 0.05 | 0.00 | 92 | 1012.8 |
| 20260505062535 | 54 | 307 | 0.0 | 0.0 | 0.00 | 0.05 | 0.00 | 92 | 1012.8 |
| 20260505062034 | 53 | 306 | 0.0 | 0.0 | 0.00 | 0.05 | 0.00 | 92 | 1012.9 |
| 20260505061535 | 53 | 306 | 0.0 | 0.0 | 0.00 | 0.05 | 0.00 | 92 | 1013.0 |
| 20260505061033 | 53 | 306 | 0.0 | 0.0 | 0.00 | 0.05 | 0.00 | 92 | 1013.1 |
| 20260505060532 | 53 | 306 | 0.0 | 0.0 | 0.00 | 0.05 | 0.00 | 92 | 1013.0 |
| 20260505060035 | 53 | 306 | 0.0 | 0.0 | 0.00 | 0.05 | 0.00 | 92 | 1013.0 |
| 20260505055532 | 53 | 306 | 0.0 | 0.0 | 0.00 | 0.05 | 0.00 | 92 | 1013.0 |
| 20260505055032 | 53 | 306 | 0.0 | 0.0 | 0.00 | 0.05 | 0.00 | 92 | 1013.0 |
| 20260505054533 | 53 | 306 | 0.0 | 0.0 | 0.00 | 0.05 | 0.00 | 92 | 1013.0 |
| 20260505054031 | 53 | 306 | 0.0 | 0.0 | 0.00 | 0.05 | 0.00 | 92 | 1013.0 |
| 20260505053531 | 53 | 306 | 0.0 | 0.0 | 0.00 | 0.05 | 0.00 | 92 | 1012.9 |
| 20260505053031 | 53 | 306 | 0.0 | 0.0 | 0.00 | 0.05 | 0.00 | 92 | 1012.8 |
| 20260505052532 | 53 | 306 | 0.0 | 0.0 | 0.00 | 0.05 | 0.00 | 92 | 1012.9 |
| 20260505052029 | 53 | 306 | 0.0 | 0.0 | 0.00 | 0.05 | 0.00 | 92 | 1012.9 |
| 20260505051528 | 53 | 306 | 0.0 | 0.0 | 0.00 | 0.05 | 0.00 | 92 | 1012.9 |
| 20260505051028 | 53 | 306 | 0.0 | 0.0 | 0.00 | 0.05 | 0.00 | 92 | 1012.9 |
| 20260505050528 | 53 | 309 | 0.0 | 0.0 | 0.00 | 0.05 | 0.00 | 92 | 1012.8 |
| 20260505050130 | 53 | 309 | 0.0 | 0.0 | 0.00 | 0.05 | 0.00 | 92 | 1012.8 |
| 20260505041540 | 53 | 312 | 0.0 | 2.0 | 0.00 | 0.05 | 0.00 | 92 | 1012.7 |
| 20260505041024 | 53 | 312 | 0.0 | 3.0 | 0.00 | 0.05 | 0.00 | 92 | 1012.6 |
| 20260505040525 | 53 | 312 | 0.0 | 3.0 | 0.00 | 0.05 | 0.00 | 92 | 1012.6 |
| 20260505040024 | 53 | 313 | 0.0 | 1.0 | 0.00 | 0.05 | 0.00 | 92 | 1012.6 |
| 20260505035522 | 53 | 313 | 0.0 | 2.0 | 0.00 | 0.05 | 0.00 | 92 | 1012.6 |
| 20260505035023 | 53 | 313 | 0.0 | 2.0 | 0.00 | 0.05 | 0.00 | 92 | 1012.7 |
| 20260505034522 | 53 | 313 | 0.0 | 2.0 | 0.00 | 0.05 | 0.00 | 92 | 1012.7 |
| 20260505034026 | 53 | 313 | 0.0 | 2.0 | 0.00 | 0.05 | 0.00 | 92 | 1012.7 |
| 20260505033521 | 53 | 313 | 0.0 | 2.0 | 0.00 | 0.05 | 0.00 | 92 | 1012.8 |
| 20260505033021 | 53 | 313 | 0.0 | 2.0 | 0.00 | 0.05 | 0.00 | 92 | 1013.0 |
| 20260505032523 | 53 | 313 | 0.0 | 3.0 | 0.00 | 0.05 | 0.00 | 92 | 1013.0 |
| 20260505032020 | 53 | 313 | 1.0 | 3.0 | 0.00 | 0.05 | 0.00 | 92 | 1013.0 |
| 20260505031520 | 53 | 322 | 0.0 | 4.0 | 0.00 | 0.05 | 0.00 | 92 | 1013.0 |
| 20260505031020 | 53 | 322 | 0.0 | 4.0 | 0.00 | 0.05 | 0.00 | 92 | 1012.9 |
| 20260505030520 | 53 | 321 | 1.0 | 4.0 | 0.00 | 0.05 | 0.00 | 92 | 1012.9 |
| 20260505030121 | 53 | 314 | 0.0 | 4.0 | 0.00 | 0.05 | 0.00 | 92 | 1012.9 |
| 20260505025519 | 53 | 321 | 1.0 | 3.0 | 0.00 | 0.05 | 0.00 | 92 | 1012.8 |
| 20260505025020 | 53 | 310 | 0.0 | 4.0 | 0.00 | 0.05 | 0.00 | 92 | 1013.0 |
| 20260505024522 | 53 | 308 | 1.0 | 4.0 | 0.00 | 0.05 | 0.00 | 92 | 1013.1 |
| 20260505024017 | 53 | 314 | 0.0 | 3.0 | 0.00 | 0.05 | 0.00 | 92 | 1013.2 |
| 20260505023517 | 53 | 283 | 0.0 | 0.0 | 0.00 | 0.05 | 0.00 | 92 | 1013.2 |
| 20260505023017 | 53 | 283 | 0.0 | 0.0 | 0.00 | 0.05 | 0.00 | 92 | 1013.2 |
| 20260505022517 | 53 | 283 | 0.0 | 0.0 | 0.00 | 0.05 | 0.00 | 92 | 1013.2 |
| 20260505022017 | 53 | 283 | 0.0 | 0.0 | 0.00 | 0.05 | 0.00 | 92 | 1013.4 |
| 20260505021518 | 53 | 283 | 0.0 | 0.0 | 0.00 | 0.05 | 0.00 | 92 | 1013.3 |
| 20260505021016 | 53 | 283 | 0.0 | 0.0 | 0.00 | 0.05 | 0.00 | 92 | 1013.3 |
| 20260505020516 | 53 | 283 | 0.0 | 0.0 | 0.00 | 0.05 | 0.00 | 92 | 1013.3 |
| 20260505020019 | 53 | 283 | 0.0 | 0.0 | 0.00 | 0.05 | 0.00 | 92 | 1013.3 |
| 20260505015517 | 53 | 283 | 0.0 | 0.0 | 0.00 | 0.05 | 0.00 | 92 | 1013.3 |
| 20260505015015 | 53 | 282 | 0.0 | 0.0 | 0.00 | 0.05 | 0.00 | 92 | 1013.3 |
| 20260505014516 | 53 | 282 | 0.0 | 0.0 | 0.00 | 0.05 | 0.00 | 92 | 1013.4 |
| 20260505014014 | 53 | 284 | 0.0 | 0.0 | 0.00 | 0.05 | 0.00 | 92 | 1013.4 |
| 20260505013514 | 53 | 296 | 0.0 | 0.0 | 0.00 | 0.05 | 0.00 | 92 | 1013.4 |
| 20260505013019 | 53 | 296 | 0.0 | 0.0 | 0.00 | 0.05 | 0.00 | 92 | 1013.5 |
| 20260505012514 | 53 | 300 | 0.0 | 0.0 | 0.00 | 0.05 | 0.00 | 92 | 1013.6 |
| 20260505012012 | 53 | 300 | 0.0 | 0.0 | 0.00 | 0.05 | 0.00 | 92 | 1013.6 |
| 20260505011517 | 53 | 300 | 0.0 | 0.0 | 0.00 | 0.05 | 0.00 | 92 | 1013.7 |
| 20260505011014 | 53 | 300 | 0.0 | 0.0 | 0.00 | 0.05 | 0.00 | 92 | 1013.8 |
| 20260505010510 | 53 | 300 | 0.0 | 0.0 | 0.00 | 0.05 | 0.00 | 91 | 1013.8 |
| 20260505010010 | 53 | 300 | 0.0 | 0.0 | 0.00 | 0.05 | 0.00 | 91 | 1013.9 |
| 20260505005509 | 53 | 300 | 0.0 | 0.0 | 0.00 | 0.05 | 0.00 | 91 | 1014.0 |
| 20260505005009 | 53 | 299 | 0.0 | 0.0 | 0.00 | 0.05 | 0.00 | 91 | 1014.0 |
| 20260505004510 | 53 | 309 | 0.0 | 0.0 | 0.00 | 0.05 | 0.00 | 91 | 1014.1 |
| 20260505004007 | 53 | 309 | 0.0 | 0.0 | 0.00 | 0.05 | 0.00 | 91 | 1014.0 |
| 20260505003507 | 54 | 309 | 0.0 | 0.0 | 0.00 | 0.05 | 0.00 | 91 | 1014.1 |
| 20260505003007 | 54 | 309 | 0.0 | 0.0 | 0.00 | 0.05 | 0.00 | 91 | 1014.1 |
| 20260505002507 | 54 | 309 | 0.0 | 0.0 | 0.00 | 0.05 | 0.00 | 91 | 1014.1 |
| 20260505002005 | 54 | 309 | 0.0 | 0.0 | 0.00 | 0.05 | 0.00 | 91 | 1014.2 |
| 20260505001505 | 54 | 309 | 0.0 | 0.0 | 0.00 | 0.05 | 0.00 | 91 | 1014.4 |
| 20260505001003 | 54 | 309 | 0.0 | 0.0 | 0.00 | 0.05 | 0.00 | 91 | 1014.4 |
| 20260505000503 | 54 | 309 | 0.0 | 0.0 | 0.00 | 0.05 | 0.00 | 91 | 1014.4 |
| 20260505000003 | 54 | 309 | 0.0 | 0.0 | 0.00 | 0.05 | 0.00 | 91 | 1014.5 |
| 20260504235502 | 55 | 309 | 0.0 | 0.0 | 0.00 | 0.05 | 0.00 | 91 | 1014.5 |
| 20260504235001 | 55 | 309 | 0.0 | 0.0 | 0.00 | 0.05 | 0.00 | 91 | 1014.6 |
| 20260504234500 | 55 | 309 | 0.0 | 3.0 | 0.00 | 0.05 | 0.00 | 91 | 1014.5 |
| 20260504234100 | 55 | 309 | 0.0 | 3.0 | 0.00 | 0.05 | 0.00 | 91 | 1014.6 |
| 20260504233604 | 55 | 309 | 0.0 | 0.0 | 0.00 | 0.05 | 0.00 | 91 | 1014.6 |
| 20260504233108 | 55 | 309 | 0.0 | 0.0 | 0.00 | 0.05 | 0.00 | 91 | 1014.6 |
| 20260504232559 | 55 | 309 | 0.0 | 0.0 | 0.00 | 0.05 | 0.00 | 91 | 1014.8 |
| 20260504232057 | 55 | 309 | 0.0 | 1.0 | 0.00 | 0.05 | 0.00 | 91 | 1014.9 |
| 20260504231557 | 55 | 309 | 0.0 | 1.0 | 0.00 | 0.05 | 0.00 | 91 | 1014.9 |
| 20260504231057 | 55 | 309 | 0.0 | 1.0 | 0.00 | 0.05 | 0.00 | 91 | 1015.0 |
| 20260504230557 | 55 | 309 | 0.0 | 3.0 | 0.00 | 0.05 | 0.00 | 91 | 1015.0 |
| 20260504230057 | 55 | 309 | 0.0 | 3.0 | 0.00 | 0.05 | 0.00 | 91 | 1015.0 |
| 20260504225557 | 55 | 309 | 1.0 | 3.0 | 0.00 | 0.05 | 0.00 | 91 | 1015.0 |
| 20260504225056 | 55 | 11 | 1.0 | 3.0 | 0.00 | 0.05 | 0.00 | 91 | 1015.0 |
| 20260504224609 | 55 | 11 | 0.0 | 2.0 | 0.00 | 0.05 | 0.00 | 91 | 1015.0 |
| 20260504224055 | 55 | 11 | 0.0 | 1.0 | 0.00 | 0.05 | 0.00 | 91 | 1015.0 |
| 20260504223555 | 55 | 11 | 0.0 | 1.0 | 0.00 | 0.05 | 0.00 | 91 | 1015.0 |
| 20260504223055 | 55 | 11 | 0.0 | 2.0 | 0.00 | 0.05 | 0.00 | 91 | 1015.1 |
| 20260504222556 | 55 | 11 | 0.0 | 2.0 | 0.00 | 0.05 | 0.00 | 91 | 1015.2 |
| 20260504222054 | 55 | 11 | 0.0 | 2.0 | 0.00 | 0.05 | 0.00 | 91 | 1015.2 |
| 20260504221555 | 55 | 11 | 0.0 | 2.0 | 0.00 | 0.05 | 0.00 | 91 | 1015.2 |
| 20260504221054 | 55 | 11 | 0.0 | 3.0 | 0.00 | 0.05 | 0.00 | 91 | 1015.0 |
| 20260504220555 | 55 | 11 | 1.0 | 3.0 | 0.00 | 0.05 | 0.00 | 90 | 1015.0 |
| 20260504220053 | 56 | 11 | 0.0 | 3.0 | 0.00 | 0.05 | 0.05 | 90 | 1015.0 |
| 20260504215552 | 56 | 11 | 0.0 | 3.0 | 0.00 | 0.05 | 0.05 | 90 | 1015.1 |
| 20260504215056 | 56 | 11 | 0.0 | 0.0 | 0.00 | 0.05 | 0.05 | 90 | 1015.0 |
| 20260504214551 | 56 | 11 | 0.0 | 0.0 | 0.00 | 0.05 | 0.05 | 90 | 1015.1 |
| 20260504214051 | 56 | 11 | 0.0 | 0.0 | 0.00 | 0.05 | 0.05 | 90 | 1015.2 |
| 20260504213552 | 56 | 11 | 0.0 | 0.0 | 0.00 | 0.05 | 0.05 | 90 | 1015.1 |
| 20260504213119 | 56 | 11 | 0.0 | 0.0 | 0.00 | 0.05 | 0.05 | 90 | 1015.2 |
| 20260504212550 | 56 | 11 | 0.0 | 0.0 | 0.00 | 0.05 | 0.05 | 90 | 1015.3 |
| 20260504212052 | 56 | 11 | 0.0 | 0.0 | 0.00 | 0.05 | 0.05 | 90 | 1015.4 |
| 20260504211649 | 56 | 11 | 0.0 | 0.0 | 0.00 | 0.05 | 0.05 | 90 | 1015.3 |
| 20260504211049 | 56 | 11 | 0.0 | 0.0 | 0.00 | 0.05 | 0.05 | 90 | 1015.4 |
| 20260504210549 | 56 | 11 | 0.0 | 0.0 | 0.00 | 0.05 | 0.05 | 90 | 1015.6 |
| 20260504210050 | 57 | 11 | 0.0 | 0.0 | 0.00 | 0.05 | 0.05 | 90 | 1015.6 |
| 20260504205549 | 57 | 11 | 0.0 | 0.0 | 0.00 | 0.05 | 0.05 | 90 | 1015.6 |
| 20260504205048 | 57 | 11 | 0.0 | 0.0 | 0.00 | 0.05 | 0.05 | 90 | 1015.7 |
| 20260504204552 | 57 | 11 | 0.0 | 0.0 | 0.00 | 0.05 | 0.05 | 90 | 1015.7 |
| 20260504204050 | 57 | 11 | 0.0 | 0.0 | 0.00 | 0.05 | 0.05 | 90 | 1015.8 |
| 20260504203550 | 57 | 11 | 0.0 | 0.0 | 0.00 | 0.05 | 0.05 | 90 | 1015.8 |
| 20260504203059 | 57 | 11 | 0.0 | 0.0 | 0.00 | 0.05 | 0.05 | 90 | 1015.9 |
| 20260504202548 | 57 | 11 | 0.0 | 1.0 | 0.00 | 0.05 | 0.05 | 90 | 1015.8 |
| 20260504202048 | 57 | 11 | 0.0 | 1.0 | 0.00 | 0.05 | 0.05 | 90 | 1015.7 |
| 20260504201548 | 57 | 11 | 0.0 | 1.0 | 0.00 | 0.05 | 0.05 | 89 | 1015.7 |
| 20260504201047 | 57 | 11 | 0.0 | 2.0 | 0.00 | 0.05 | 0.05 | 89 | 1015.6 |
| 20260504200547 | 57 | 11 | 0.0 | 3.0 | 0.00 | 0.05 | 0.05 | 89 | 1015.6 |
| 20260504200050 | 57 | 11 | 1.0 | 3.0 | 0.00 | 0.05 | 0.05 | 89 | 1015.5 |
| 20260504195547 | 57 | 126 | 0.0 | 2.0 | 0.00 | 0.05 | 0.05 | 89 | 1015.6 |
| 20260504195046 | 57 | 126 | 0.0 | 2.0 | 0.00 | 0.05 | 0.05 | 89 | 1015.5 |
| 20260504194559 | 57 | 127 | 0.0 | 2.0 | 0.00 | 0.05 | 0.05 | 89 | 1015.6 |
| 20260504194046 | 57 | 127 | 0.0 | 0.0 | 0.00 | 0.05 | 0.05 | 89 | 1015.6 |
| 20260504193549 | 57 | 127 | 0.0 | 0.0 | 0.00 | 0.05 | 0.05 | 89 | 1015.6 |
| 20260504193056 | 57 | 127 | 0.0 | 0.0 | 0.00 | 0.05 | 0.05 | 89 | 1015.6 |
| 20260504192546 | 57 | 127 | 0.0 | 0.0 | 0.00 | 0.05 | 0.05 | 89 | 1015.5 |
| 20260504192046 | 57 | 127 | 0.0 | 0.0 | 0.00 | 0.05 | 0.05 | 89 | 1015.5 |
| 20260504191546 | 57 | 127 | 0.0 | 0.0 | 0.00 | 0.05 | 0.05 | 89 | 1015.4 |
| 20260504191046 | 58 | 127 | 0.0 | 0.0 | 0.00 | 0.05 | 0.05 | 88 | 1015.5 |
| 20260504190550 | 58 | 127 | 0.0 | 1.0 | 0.00 | 0.05 | 0.05 | 89 | 1015.4 |
| 20260504190053 | 58 | 127 | 0.0 | 1.0 | 0.00 | 0.05 | 0.05 | 89 | 1015.4 |
| 20260504185544 | 58 | 127 | 0.0 | 1.0 | 0.00 | 0.05 | 0.05 | 88 | 1015.3 |
| 20260504185044 | 58 | 127 | 0.0 | 1.0 | 0.00 | 0.05 | 0.05 | 88 | 1015.4 |
| 20260504184546 | 58 | 127 | 0.0 | 1.0 | 0.00 | 0.05 | 0.05 | 88 | 1015.5 |
| 20260504184044 | 58 | 127 | 0.0 | 1.0 | 0.00 | 0.05 | 0.05 | 88 | 1015.5 |
| 20260504183547 | 58 | 127 | 0.0 | 1.0 | 0.00 | 0.05 | 0.05 | 88 | 1015.6 |
| 20260504183044 | 58 | 127 | 0.0 | 1.0 | 0.00 | 0.05 | 0.05 | 88 | 1015.6 |
| 20260504182546 | 58 | 127 | 0.0 | 2.0 | 0.00 | 0.05 | 0.05 | 88 | 1015.6 |
| 20260504182044 | 58 | 127 | 0.0 | 2.0 | 0.00 | 0.05 | 0.05 | 88 | 1015.8 |
| 20260504181545 | 58 | 127 | 0.0 | 2.0 | 0.01 | 0.05 | 0.05 | 88 | 1015.8 |
| 20260504181044 | 58 | 127 | 0.0 | 2.0 | 0.01 | 0.05 | 0.05 | 87 | 1015.9 |
| 20260504180546 | 58 | 127 | 0.0 | 3.0 | 0.01 | 0.05 | 0.05 | 87 | 1015.8 |
| 20260504180044 | 59 | 127 | 0.0 | 4.0 | 0.01 | 0.05 | 0.05 | 87 | 1015.9 |
| 20260504175542 | 59 | 134 | 1.0 | 4.0 | 0.01 | 0.05 | 0.05 | 87 | 1015.8 |
| 20260504175043 | 59 | 135 | 0.0 | 0.0 | 0.01 | 0.05 | 0.05 | 87 | 1015.9 |
| 20260504174543 | 59 | 135 | 0.0 | 0.0 | 0.01 | 0.05 | 0.05 | 87 | 1016.0 |
| 20260504174042 | 59 | 95 | 0.0 | 2.0 | 0.01 | 0.05 | 0.05 | 86 | 1016.0 |
| 20260504173542 | 59 | 24 | 0.0 | 8.0 | 0.01 | 0.05 | 0.05 | 86 | 1015.8 |
| 20260504173048 | 59 | 329 | 2.0 | 8.0 | 0.02 | 0.05 | 0.05 | 85 | 1015.4 |
| 20260504172540 | 59 | 315 | 3.0 | 5.0 | 0.02 | 0.05 | 0.05 | 85 | 1015.5 |
| 20260504172044 | 60 | 194 | 0.0 | 0.0 | 0.02 | 0.05 | 0.05 | 85 | 1016.0 |
| 20260504171540 | 60 | 194 | 0.0 | 0.0 | 0.02 | 0.04 | 0.04 | 84 | 1016.1 |
| 20260504171042 | 60 | 194 | 0.0 | 0.0 | 0.02 | 0.04 | 0.04 | 84 | 1016.2 |
| 20260504170539 | 60 | 194 | 0.0 | 0.0 | 0.02 | 0.04 | 0.04 | 84 | 1016.3 |
| 20260504151035 | 64 | 314 | 1.0 | 6.0 | 0.00 | 0.00 | 0.00 | 69 | 1016.0 |
| 20260504150535 | 64 | 13 | 0.0 | 5.0 | 0.00 | 0.00 | 0.00 | 68 | 1016.0 |
| 20260504141033 | 68 | 294 | 1.0 | 5.0 | 0.00 | 0.00 | 0.00 | 56 | 1015.6 |
| 20260504140533 | 68 | 327 | 0.0 | 5.0 | 0.00 | 0.00 | 0.00 | 56 | 1015.6 |
| 20260504130531 | 69 | 236 | 1.0 | 4.0 | 0.00 | 0.00 | 0.00 | 50 | 1015.5 |